Ephrata, WA
on Sunday, February 24, 2013

Sunday
Previous Day Next Day
Daily Summary
 ActualAverageRecord
Temperature
Mean Temperature °F / °C 36°F / 2°C  
Max Temperature 45°F / 7°C 46°F / 8°C 58°F / 14°C (1968)
Min Temperature 25°F / -4°C 27°F / -3°C 6°F / -14°C (2011)
Degree Days
Heating Degree Days 30 29  
Month to date heating degree days 693 753  
Since 1 July heating degree days 4129 4461  
Cooling Degree Days 0 0  
Month to date cooling degree days 0 0  
Year to date cooling degree days 0 0  
Moisture
Dew Point 25°F / -4°C   
Average Humidity 67    
Maximum Humidity 85    
Minimum Humidity 48    
Precipitation
Precipitation 0.00 in / 0.00 cm 0.03 in / 0.76 cm 0.31 in / 0.79 cm (1984)
Month to date precipitation T 0.63  
Year to date precipitation 0.19 1.54  
Wind
Wind Speed 5 mph / 8 km/h   
Max Wind Speed 16 mph / 26 km/h   
Max Gust Speed 20 mph / 32 km/h   
Visibility 10 miles / 16 kilometers   
Events     

Key: T is trace of precipitation, MM is missing value
Source: NWS Daily Summary
Time(PST)TemperatureDew PointHumidity Pressure Visibility Wind DirectionWind SpeedGust SpeedPrecipitationEvents Conditions
12:53 AM 34.0°F / 1.1°C 19.9°F / -6.7°C 56% 30.26 in / 1024.6 hPa 10.0 miles / 16.1 kilometers WSW 4.6 mph / 7.4 km/h - N/A   Clear
1:53 AM 37.9°F / 3.3°C 19.9°F / -6.7°C 48% 30.26 in / 1024.7 hPa 10.0 miles / 16.1 kilometers WSW 3.5 mph / 5.6 km/h - N/A   Clear
2:53 AM 32.0°F / 0.0°C 19.9°F / -6.7°C 61% 30.27 in / 1024.9 hPa 10.0 miles / 16.1 kilometers SSE 5.8 mph / 9.3 km/h - N/A   Clear
3:53 AM 28.0°F / -2.2°C 21.0°F / -6.1°C 75% 30.28 in / 1025.3 hPa 10.0 miles / 16.1 kilometers South 9.2 mph / 14.8 km/h - N/A   Scattered Clouds
4:53 AM 26.1°F / -3.3°C 21.9°F / -5.6°C 84% 30.29 in / 1025.6 hPa 10.0 miles / 16.1 kilometers South 5.8 mph / 9.3 km/h - N/A   Clear
5:53 AM 27.0°F / -2.8°C 23.0°F / -5.0°C 85% 30.29 in / 1025.5 hPa 10.0 miles / 16.1 kilometers SSW 9.2 mph / 14.8 km/h - N/A   Mostly Cloudy
6:53 AM 30.0°F / -1.1°C 24.1°F / -4.4°C 79% 30.28 in / 1025.4 hPa 10.0 miles / 16.1 kilometers SSE 3.5 mph / 5.6 km/h - N/A   Overcast
7:53 AM 32.0°F / 0.0°C 25.0°F / -3.9°C 75% 30.29 in / 1025.7 hPa 10.0 miles / 16.1 kilometers SE 5.8 mph / 9.3 km/h - N/A   Overcast
8:53 AM 35.1°F / 1.7°C 27.0°F / -2.8°C 72% 30.30 in / 1026.0 hPa 10.0 miles / 16.1 kilometers NNE 3.5 mph / 5.6 km/h - N/A   Overcast
9:53 AM 37.9°F / 3.3°C 28.0°F / -2.2°C 68% 30.31 in / 1026.2 hPa 10.0 miles / 16.1 kilometers NNE 4.6 mph / 7.4 km/h - N/A   Clear
10:53 AM 39.0°F / 3.9°C 28.9°F / -1.7°C 67% 30.30 in / 1025.8 hPa 10.0 miles / 16.1 kilometers Calm Calm - N/A   Mostly Cloudy
11:53 AM 39.9°F / 4.4°C 28.9°F / -1.7°C 65% 30.29 in / 1025.6 hPa 10.0 miles / 16.1 kilometers Calm Calm - N/A   Scattered Clouds
12:53 PM 41.0°F / 5.0°C 28.0°F / -2.2°C 60% 30.27 in / 1025.1 hPa 10.0 miles / 16.1 kilometers ENE 3.5 mph / 5.6 km/h - N/A   Overcast
1:53 PM 42.1°F / 5.6°C 28.0°F / -2.2°C 58% 30.24 in / 1023.9 hPa 10.0 miles / 16.1 kilometers SSE 13.8 mph / 22.2 km/h - N/A   Clear
2:53 PM 42.1°F / 5.6°C 28.0°F / -2.2°C 58% 30.24 in / 1023.9 hPa 10.0 miles / 16.1 kilometers SSE 12.7 mph / 20.4 km/h - N/A   Clear
3:53 PM 44.1°F / 6.7°C 28.0°F / -2.2°C 53% 30.23 in / 1023.6 hPa 10.0 miles / 16.1 kilometers South 6.9 mph / 11.1 km/h - N/A   Clear
4:53 PM 43.0°F / 6.1°C 26.1°F / -3.3°C 51% 30.21 in / 1022.8 hPa 10.0 miles / 16.1 kilometers SSE 11.5 mph / 18.5 km/h - N/A   Clear
5:53 PM 35.1°F / 1.7°C 26.1°F / -3.3°C 70% 30.21 in / 1022.8 hPa 10.0 miles / 16.1 kilometers SSE 5.8 mph / 9.3 km/h - N/A   Clear
6:53 PM 34.0°F / 1.1°C 26.1°F / -3.3°C 73% 30.19 in / 1022.1 hPa 10.0 miles / 16.1 kilometers Calm Calm - N/A   Clear
7:53 PM 33.1°F / 0.6°C 26.1°F / -3.3°C 75% 30.15 in / 1020.9 hPa 10.0 miles / 16.1 kilometers Calm Calm - N/A   Clear
8:53 PM 34.0°F / 1.1°C 26.1°F / -3.3°C 73% 30.12 in / 1020.0 hPa 10.0 miles / 16.1 kilometers Calm Calm - N/A   Clear
9:53 PM 30.0°F / -1.1°C 25.0°F / -3.9°C 82% 30.09 in / 1019.0 hPa 10.0 miles / 16.1 kilometers North 3.5 mph / 5.6 km/h - N/A   Clear
10:53 PM 30.9°F / -0.6°C 26.1°F / -3.3°C 82% 30.07 in / 1018.2 hPa 10.0 miles / 16.1 kilometers NNW 5.8 mph / 9.3 km/h - N/A   Overcast
11:53 PM 30.0°F / -1.1°C 27.0°F / -2.8°C 88% 30.04 in / 1017.2 hPa 10.0 miles / 16.1 kilometers NNE 6.9 mph / 11.1 km/h - N/A   Partly Cloudy
Moon Phase
Feb. 24 Feb. 25 Mar. 04 Mar. 11 Mar. 19
Sunrise:06:46 AM (PST) Moon Rise:04:52 PM (PST)2/24
Sunset:05:36 PM (PST) Moon Set:05:48 AM (PST)2/24

Copyright © 2014 The Weather Underground, Inc.